Time,TemperatureF,DewpointF,PressureIn,WindDirection,WindDirectionDegrees,WindSpeedMPH,WindSpeedGustMPH,Humidity,HourlyPrecipIn,Conditions,Clouds,dailyrainin,SolarRadiationWatts/m^2,SoftwareType,DateUTC
2013-07-16 00:05:00,74.9,73.7,30.25,ENE,59,0.0,0.0,96,0.00,,,0.00,0,Wunderground v.1.15,2013-07-16 04:05:00,
2013-07-16 00:10:00,74.9,73.7,30.24,ENE,59,0.0,0.0,96,0.00,,,0.00,0,Wunderground v.1.15,2013-07-16 04:10:00,
2013-07-16 00:15:00,74.9,73.7,30.24,ENE,59,0.0,0.0,96,0.00,,,0.00,0,Wunderground v.1.15,2013-07-16 04:15:00,
2013-07-16 00:20:00,74.9,73.7,30.25,ENE,59,0.0,0.0,96,0.00,,,0.00,0,Wunderground v.1.15,2013-07-16 04:20:00,
2013-07-16 00:25:00,74.8,73.6,30.24,ENE,59,0.0,0.0,96,0.00,,,0.00,0,Wunderground v.1.15,2013-07-16 04:25:00,
2013-07-16 00:30:00,74.8,73.6,30.24,ENE,59,0.0,0.0,96,0.00,,,0.00,0,Wunderground v.1.15,2013-07-16 04:30:00,
2013-07-16 00:40:00,74.7,73.5,30.24,ENE,59,0.0,0.0,96,0.00,,,0.00,0,Wunderground v.1.15,2013-07-16 04:40:00,
2013-07-16 00:45:00,74.6,73.4,30.24,ENE,59,0.0,0.0,96,0.00,,,0.00,0,Wunderground v.1.15,2013-07-16 04:45:00,
2013-07-16 00:50:00,74.5,73.3,30.24,ENE,59,0.0,0.0,96,0.00,,,0.00,0,Wunderground v.1.15,2013-07-16 04:50:00,
2013-07-16 00:55:00,74.6,73.7,30.24,ENE,59,0.0,0.0,97,0.00,,,0.00,0,Wunderground v.1.15,2013-07-16 04:55:00,
2013-07-16 01:00:00,74.5,73.3,30.24,ENE,59,0.0,0.0,96,0.00,,,0.00,0,Wunderground v.1.15,2013-07-16 05:00:00,
2013-07-16 01:10:00,74.4,73.5,30.24,ENE,59,0.0,0.0,97,0.00,,,0.00,0,Wunderground v.1.15,2013-07-16 05:10:00,
2013-07-16 01:15:00,74.4,73.5,30.24,ENE,59,0.0,0.0,97,0.00,,,0.00,0,Wunderground v.1.15,2013-07-16 05:15:00,
2013-07-16 01:20:00,74.2,73.0,30.24,ENE,59,0.0,0.0,96,0.00,,,0.00,0,Wunderground v.1.15,2013-07-16 05:20:00,
2013-07-16 01:25:00,74.1,72.9,30.24,ENE,59,0.0,0.0,96,0.00,,,0.00,0,Wunderground v.1.15,2013-07-16 05:25:00,
2013-07-16 01:35:00,74.1,73.2,30.23,ENE,59,0.0,0.0,97,0.00,,,0.00,0,Wunderground v.1.15,2013-07-16 05:35:00,
2013-07-16 01:40:00,74.0,73.1,30.23,ENE,59,0.0,0.0,97,0.00,,,0.00,0,Wunderground v.1.15,2013-07-16 05:40:00,
2013-07-16 01:45:00,74.0,73.1,30.24,ENE,59,0.0,0.0,97,0.00,,,0.00,0,Wunderground v.1.15,2013-07-16 05:45:00,
2013-07-16 01:50:00,74.0,73.1,30.24,ENE,59,0.0,0.0,97,0.00,,,0.00,0,Wunderground v.1.15,2013-07-16 05:50:00,
2013-07-16 02:00:00,73.9,73.0,30.24,ENE,59,0.0,0.0,97,0.00,,,0.00,0,Wunderground v.1.15,2013-07-16 06:00:00,
2013-07-16 02:05:00,73.9,73.0,30.24,ENE,59,0.0,0.0,97,0.00,,,0.00,0,Wunderground v.1.15,2013-07-16 06:05:00,
2013-07-16 02:10:00,73.8,72.9,30.24,ENE,59,0.0,0.0,97,0.00,,,0.00,0,Wunderground v.1.15,2013-07-16 06:10:00,
2013-07-16 02:15:00,73.8,72.9,30.24,ENE,59,0.0,0.0,97,0.00,,,0.00,0,Wunderground v.1.15,2013-07-16 06:15:00,
2013-07-16 02:20:00,73.8,72.9,30.24,ENE,59,0.0,0.0,97,0.00,,,0.00,0,Wunderground v.1.15,2013-07-16 06:20:00,
2013-07-16 02:30:00,73.8,72.9,30.24,ENE,59,0.0,0.0,97,0.00,,,0.00,0,Wunderground v.1.15,2013-07-16 06:30:00,
2013-07-16 02:35:00,73.7,72.8,30.24,ENE,59,0.0,0.0,97,0.00,,,0.00,0,Wunderground v.1.15,2013-07-16 06:35:00,
2013-07-16 02:40:00,73.7,72.8,30.24,ENE,59,0.0,0.0,97,0.00,,,0.00,0,Wunderground v.1.15,2013-07-16 06:40:00,
2013-07-16 02:45:00,73.5,72.6,30.24,South,175,0.0,0.0,97,0.00,,,0.00,0,Wunderground v.1.15,2013-07-16 06:45:00,
2013-07-16 02:55:00,73.5,72.6,30.24,South,175,0.0,0.0,97,0.00,,,0.00,0,Wunderground v.1.15,2013-07-16 06:55:00,
2013-07-16 03:00:00,73.4,72.5,30.24,South,175,0.0,0.0,97,0.00,,,0.00,0,Wunderground v.1.15,2013-07-16 07:00:00,
2013-07-16 03:05:00,73.4,72.5,30.24,South,175,0.0,0.0,97,0.00,,,0.00,0,Wunderground v.1.15,2013-07-16 07:05:00,
2013-07-16 03:10:00,73.4,72.5,30.24,South,175,0.0,0.0,97,0.00,,,0.00,0,Wunderground v.1.15,2013-07-16 07:10:00,
2013-07-16 03:15:00,73.4,72.5,30.23,South,175,0.0,0.0,97,0.00,,,0.00,0,Wunderground v.1.15,2013-07-16 07:15:00,
2013-07-16 03:25:00,73.3,72.4,30.23,South,175,0.0,0.0,97,0.00,,,0.00,0,Wunderground v.1.15,2013-07-16 07:25:00,
2013-07-16 03:30:00,73.3,72.4,30.24,South,175,0.0,0.0,97,0.00,,,0.00,0,Wunderground v.1.15,2013-07-16 07:30:00,
2013-07-16 03:35:00,73.2,72.3,30.23,South,175,0.0,0.0,97,0.00,,,0.00,0,Wunderground v.1.15,2013-07-16 07:35:00,
2013-07-16 03:40:00,73.2,72.3,30.23,South,175,0.0,0.0,97,0.00,,,0.00,0,Wunderground v.1.15,2013-07-16 07:40:00,
2013-07-16 03:45:00,73.1,72.2,30.23,South,175,0.0,0.0,97,0.00,,,0.00,0,Wunderground v.1.15,2013-07-16 07:45:00,
2013-07-16 03:55:00,73.1,72.2,30.23,South,175,0.0,0.0,97,0.00,,,0.00,0,Wunderground v.1.15,2013-07-16 07:55:00,
2013-07-16 04:00:00,73.0,72.1,30.24,South,175,0.0,0.0,97,0.00,,,0.00,0,Wunderground v.1.15,2013-07-16 08:00:00,
2013-07-16 04:05:00,73.0,72.1,30.23,South,175,0.0,0.0,97,0.00,,,0.00,0,Wunderground v.1.15,2013-07-16 08:05:00,
2013-07-16 04:10:00,72.9,72.0,30.23,South,175,0.0,0.0,97,0.00,,,0.00,0,Wunderground v.1.15,2013-07-16 08:10:00,
2013-07-16 04:20:00,72.8,71.9,30.23,South,175,0.0,0.0,97,0.00,,,0.00,0,Wunderground v.1.15,2013-07-16 08:20:00,
2013-07-16 04:25:00,72.8,71.9,30.23,South,175,0.0,0.0,97,0.00,,,0.00,0,Wunderground v.1.15,2013-07-16 08:25:00,
2013-07-16 04:30:00,72.8,71.9,30.24,South,175,0.0,0.0,97,0.00,,,0.00,0,Wunderground v.1.15,2013-07-16 08:30:00,
2013-07-16 04:35:00,72.8,71.9,30.23,South,175,0.0,0.0,97,0.00,,,0.00,0,Wunderground v.1.15,2013-07-16 08:35:00,
2013-07-16 04:45:00,72.7,71.8,30.23,South,175,0.0,0.0,97,0.00,,,0.00,0,Wunderground v.1.15,2013-07-16 08:45:00,
2013-07-16 04:50:00,72.6,71.7,30.24,South,175,0.0,0.0,97,0.00,,,0.00,0,Wunderground v.1.15,2013-07-16 08:50:00,
2013-07-16 04:55:00,72.6,71.7,30.23,South,175,0.0,0.0,97,0.00,,,0.00,0,Wunderground v.1.15,2013-07-16 08:55:00,
2013-07-16 05:00:00,72.6,71.7,30.24,South,175,0.0,0.0,97,0.00,,,0.00,0,Wunderground v.1.15,2013-07-16 09:00:00,
2013-07-16 05:05:00,72.6,71.7,30.24,South,175,0.0,0.0,97,0.00,,,0.00,0,Wunderground v.1.15,2013-07-16 09:05:00,
2013-07-16 05:15:00,72.5,71.6,30.24,South,175,0.0,0.0,97,0.00,,,0.00,0,Wunderground v.1.15,2013-07-16 09:15:00,
2013-07-16 05:20:00,72.6,72.0,30.24,South,175,0.0,0.0,98,0.00,,,0.00,0,Wunderground v.1.15,2013-07-16 09:20:00,
2013-07-16 05:25:00,72.5,71.6,30.24,South,175,0.0,0.0,97,0.00,,,0.00,0,Wunderground v.1.15,2013-07-16 09:25:00,
2013-07-16 05:30:00,72.5,71.9,30.24,South,175,0.0,0.0,98,0.00,,,0.00,0,Wunderground v.1.15,2013-07-16 09:30:00,
2013-07-16 05:35:00,72.5,71.9,30.24,South,175,0.0,0.0,98,0.00,,,0.00,0,Wunderground v.1.15,2013-07-16 09:35:00,
2013-07-16 05:45:00,72.5,71.9,30.24,South,175,0.0,0.0,98,0.00,,,0.00,0,Wunderground v.1.15,2013-07-16 09:45:00,
2013-07-16 05:50:00,72.5,71.9,30.24,South,175,0.0,0.0,98,0.00,,,0.00,0,Wunderground v.1.15,2013-07-16 09:50:00,
2013-07-16 05:55:00,72.4,71.8,30.24,South,175,0.0,0.0,98,0.00,,,0.00,0,Wunderground v.1.15,2013-07-16 09:55:00,
2013-07-16 06:05:00,72.4,71.8,30.24,South,175,0.0,0.0,98,0.00,,,0.00,0,Wunderground v.1.15,2013-07-16 10:05:00,
2013-07-16 06:10:00,72.4,71.8,30.25,WSW,254,0.0,0.0,98,0.00,,,0.00,0,Wunderground v.1.15,2013-07-16 10:10:00,
2013-07-16 06:15:00,72.4,71.8,30.24,WSW,254,0.0,0.0,98,0.00,,,0.00,0,Wunderground v.1.15,2013-07-16 10:15:00,
2013-07-16 06:20:00,72.4,71.8,30.24,WSW,254,0.0,0.0,98,0.00,,,0.00,0,Wunderground v.1.15,2013-07-16 10:20:00,
2013-07-16 06:25:00,72.4,71.8,30.24,WSW,254,0.0,0.0,98,0.00,,,0.00,5,Wunderground v.1.15,2013-07-16 10:25:00,
2013-07-16 06:35:00,72.3,71.4,30.24,WSW,254,0.0,0.0,97,0.00,,,0.00,9,Wunderground v.1.15,2013-07-16 10:35:00,
2013-07-16 06:40:00,72.3,71.4,30.25,WSW,254,0.0,0.0,97,0.00,,,0.00,11,Wunderground v.1.15,2013-07-16 10:40:00,
2013-07-16 06:45:00,72.3,71.4,30.24,WSW,254,0.0,0.0,97,0.00,,,0.00,11,Wunderground v.1.15,2013-07-16 10:45:00,
2013-07-16 06:50:00,72.3,71.4,30.24,WSW,254,0.0,0.0,97,0.00,,,0.00,12,Wunderground v.1.15,2013-07-16 10:50:00,
2013-07-16 06:55:00,72.3,71.4,30.24,WSW,254,0.0,0.0,97,0.00,,,0.00,12,Wunderground v.1.15,2013-07-16 10:55:00,
2013-07-16 07:05:00,72.4,71.8,30.24,WSW,254,0.0,0.0,98,0.00,,,0.00,14,Wunderground v.1.15,2013-07-16 11:05:00,
2013-07-16 07:10:00,72.4,71.8,30.24,WSW,254,0.0,0.0,98,0.00,,,0.00,16,Wunderground v.1.15,2013-07-16 11:10:00,
2013-07-16 07:15:00,72.5,71.9,30.24,WSW,254,0.0,0.0,98,0.00,,,0.00,16,Wunderground v.1.15,2013-07-16 11:15:00,
2013-07-16 07:20:00,72.6,72.0,30.24,WSW,254,0.0,0.0,98,0.00,,,0.00,18,Wunderground v.1.15,2013-07-16 11:20:00,
2013-07-16 07:25:00,72.6,72.0,30.24,WSW,254,0.0,0.0,98,0.00,,,0.00,18,Wunderground v.1.15,2013-07-16 11:25:00,
2013-07-16 07:35:00,72.8,72.2,30.24,WSW,254,0.0,0.0,98,0.00,,,0.00,19,Wunderground v.1.15,2013-07-16 11:35:00,
2013-07-16 07:40:00,72.8,72.2,30.24,WSW,254,0.0,0.0,98,0.00,,,0.00,19,Wunderground v.1.15,2013-07-16 11:40:00,
2013-07-16 07:45:00,72.9,72.3,30.24,WSW,254,0.0,0.0,98,0.00,,,0.00,19,Wunderground v.1.15,2013-07-16 11:45:00,
2013-07-16 07:55:00,73.2,72.6,30.24,WSW,254,0.0,0.0,98,0.00,,,0.00,21,Wunderground v.1.15,2013-07-16 11:55:00,
2013-07-16 08:00:00,73.3,72.7,30.24,WSW,254,0.0,0.0,98,0.00,,,0.00,21,Wunderground v.1.15,2013-07-16 12:00:00,
2013-07-16 08:05:00,73.5,72.6,30.24,WSW,254,0.0,0.0,97,0.00,,,0.00,21,Wunderground v.1.15,2013-07-16 12:05:00,
2013-07-16 08:10:00,73.7,73.1,30.24,WSW,254,0.0,0.0,98,0.00,,,0.00,23,Wunderground v.1.15,2013-07-16 12:10:00,
2013-07-16 08:15:00,73.9,73.0,30.24,WSW,254,0.0,0.0,97,0.00,,,0.00,23,Wunderground v.1.15,2013-07-16 12:15:00,
2013-07-16 08:25:00,74.4,73.2,30.24,WSW,254,0.0,0.0,96,0.00,,,0.00,25,Wunderground v.1.15,2013-07-16 12:25:00,
2013-07-16 08:30:00,74.7,73.5,30.24,WSW,254,0.0,0.0,96,0.00,,,0.00,25,Wunderground v.1.15,2013-07-16 12:30:00,
2013-07-16 08:35:00,75.0,73.5,30.24,WSW,254,0.0,0.0,95,0.00,,,0.00,26,Wunderground v.1.15,2013-07-16 12:35:00,
2013-07-16 08:40:00,75.4,73.6,30.24,WSW,255,0.0,0.0,94,0.00,,,0.00,26,Wunderground v.1.15,2013-07-16 12:40:00,
2013-07-16 08:50:00,76.3,74.1,30.24,WSW,255,0.0,0.0,93,0.00,,,0.00,28,Wunderground v.1.15,2013-07-16 12:50:00,
2013-07-16 08:55:00,76.7,73.9,30.24,WSW,255,0.0,0.0,91,0.00,,,0.00,30,Wunderground v.1.15,2013-07-16 12:55:00,
2013-07-16 09:00:00,77.2,74.4,30.24,WSW,255,0.0,0.0,91,0.00,,,0.00,30,Wunderground v.1.15,2013-07-16 13:00:00,
2013-07-16 09:05:00,77.5,74.0,30.24,NW,321,0.0,0.0,89,0.00,,,0.00,32,Wunderground v.1.15,2013-07-16 13:05:00,
2013-07-16 09:10:00,78.0,74.2,30.24,NW,321,0.0,0.0,88,0.00,,,0.00,32,Wunderground v.1.15,2013-07-16 13:10:00,
2013-07-16 09:20:00,78.7,74.5,30.24,NW,321,0.0,0.0,87,0.00,,,0.00,35,Wunderground v.1.15,2013-07-16 13:20:00,
2013-07-16 09:25:00,79.1,74.9,30.24,NNW,346,0.0,0.0,87,0.00,,,0.00,37,Wunderground v.1.15,2013-07-16 13:25:00,
2013-07-16 09:30:00,79.4,74.8,30.24,NNW,341,0.0,0.0,86,0.00,,,0.00,39,Wunderground v.1.15,2013-07-16 13:30:00,
2013-07-16 09:40:00,80.0,75.1,30.24,NNW,333,0.0,0.0,85,0.00,,,0.00,42,Wunderground v.1.15,2013-07-16 13:40:00,
2013-07-16 09:45:00,80.2,75.3,30.24,NNW,333,0.0,0.0,85,0.00,,,0.00,46,Wunderground v.1.15,2013-07-16 13:45:00,
2013-07-16 09:50:00,80.5,75.2,30.24,NNW,333,0.0,0.0,84,0.00,,,0.00,56,Wunderground v.1.15,2013-07-16 13:50:00,
2013-07-16 09:55:00,80.7,75.4,30.24,NNW,333,0.0,0.0,84,0.00,,,0.00,62,Wunderground v.1.15,2013-07-16 13:55:00,
2013-07-16 10:00:00,80.8,75.5,30.24,NNW,333,0.0,0.0,84,0.00,,,0.00,69,Wunderground v.1.15,2013-07-16 14:00:00,
2013-07-16 10:10:00,81.1,75.4,30.24,NNW,333,0.0,0.0,83,0.00,,,0.00,83,Wunderground v.1.15,2013-07-16 14:10:00,
2013-07-16 10:15:00,81.2,75.5,30.24,NNW,333,0.0,0.0,83,0.00,,,0.00,91,Wunderground v.1.15,2013-07-16 14:15:00,
2013-07-16 10:20:00,81.2,75.5,30.24,NNW,333,0.0,0.0,83,0.00,,,0.00,137,Wunderground v.1.15,2013-07-16 14:20:00,
2013-07-16 10:25:00,81.5,75.5,30.24,NNW,333,0.0,0.0,82,0.00,,,0.00,98,Wunderground v.1.15,2013-07-16 14:25:00,
2013-07-16 10:30:00,81.7,75.7,30.24,NNW,333,0.0,0.0,82,0.00,,,0.00,102,Wunderground v.1.15,2013-07-16 14:30:00,
2013-07-16 10:40:00,82.1,75.7,30.24,NNW,333,0.0,0.0,81,0.00,,,0.00,135,Wunderground v.1.15,2013-07-16 14:40:00,
2013-07-16 10:45:00,82.3,75.5,30.24,NNW,333,0.0,0.0,80,0.00,,,0.00,132,Wunderground v.1.15,2013-07-16 14:45:00,
2013-07-16 10:50:00,82.3,75.5,30.24,NNW,333,0.0,0.0,80,0.00,,,0.00,146,Wunderground v.1.15,2013-07-16 14:50:00,
2013-07-16 10:55:00,82.5,75.7,30.24,NNW,333,0.0,0.0,80,0.00,,,0.00,176,Wunderground v.1.15,2013-07-16 14:55:00,
2013-07-16 11:05:00,82.8,75.6,30.24,NNW,333,0.0,0.0,79,0.00,,,0.00,531,Wunderground v.1.15,2013-07-16 15:05:00,
2013-07-16 11:10:00,83.2,76.0,30.24,NNW,333,0.0,0.0,79,0.00,,,0.00,489,Wunderground v.1.15,2013-07-16 15:10:00,
2013-07-16 11:15:00,83.6,76.4,30.24,NNW,333,0.0,0.0,79,0.00,,,0.00,422,Wunderground v.1.15,2013-07-16 15:15:00,
2013-07-16 11:20:00,83.7,76.5,30.24,NNW,333,0.0,0.0,79,0.00,,,0.00,316,Wunderground v.1.15,2013-07-16 15:20:00,
2013-07-16 11:30:00,84.0,76.8,30.23,NNW,333,0.0,0.0,79,0.00,,,0.00,786,Wunderground v.1.15,2013-07-16 15:30:00,
2013-07-16 11:35:00,84.4,76.8,30.23,NNW,333,0.0,0.0,78,0.00,,,0.00,657,Wunderground v.1.15,2013-07-16 15:35:00,
2013-07-16 11:40:00,84.9,77.3,30.23,NNW,333,0.0,0.0,78,0.00,,,0.00,596,Wunderground v.1.15,2013-07-16 15:40:00,
2013-07-16 11:45:00,85.2,77.2,30.23,NNW,333,0.0,0.0,77,0.00,,,0.00,656,Wunderground v.1.15,2013-07-16 15:45:00,
2013-07-16 11:55:00,85.3,77.3,30.23,NNW,333,0.0,0.0,77,0.00,,,0.00,292,Wunderground v.1.15,2013-07-16 15:55:00,
2013-07-16 12:00:00,85.3,77.3,30.23,NNW,333,0.0,0.0,77,0.00,,,0.00,308,Wunderground v.1.15,2013-07-16 16:00:00,
2013-07-16 12:05:00,85.2,77.6,30.23,NNW,333,0.0,0.0,78,0.00,,,0.00,411,Wunderground v.1.15,2013-07-16 16:05:00,
2013-07-16 12:10:00,85.2,77.2,30.22,NNW,333,0.0,0.0,77,0.00,,,0.00,712,Wunderground v.1.15,2013-07-16 16:10:00,
2013-07-16 12:20:00,86.4,77.1,30.22,NNW,333,0.0,0.0,74,0.00,,,0.00,875,Wunderground v.1.15,2013-07-16 16:20:00,
2013-07-16 12:25:00,87.4,77.7,30.22,NNW,333,0.0,0.0,73,0.00,,,0.00,696,Wunderground v.1.15,2013-07-16 16:25:00,
2013-07-16 12:30:00,88.4,78.2,30.23,NNW,333,0.0,0.0,72,0.00,,,0.00,747,Wunderground v.1.15,2013-07-16 16:30:00,
2013-07-16 12:35:00,89.5,79.3,30.22,NNW,331,0.0,0.0,72,0.00,,,0.00,877,Wunderground v.1.15,2013-07-16 16:35:00,
2013-07-16 12:45:00,91.3,79.7,30.22,NNW,331,0.0,0.0,69,0.00,,,0.00,872,Wunderground v.1.15,2013-07-16 16:45:00,
2013-07-16 12:50:00,92.1,80.5,30.22,NNW,331,0.0,0.0,69,0.00,,,0.00,874,Wunderground v.1.15,2013-07-16 16:50:00,
2013-07-16 12:55:00,92.1,78.6,30.22,NNW,331,0.0,0.0,65,0.00,,,0.00,882,Wunderground v.1.15,2013-07-16 16:55:00,
2013-07-16 13:00:00,91.4,78.0,30.21,NNW,331,0.0,0.0,65,0.00,,,0.00,879,Wunderground v.1.15,2013-07-16 17:00:00,
2013-07-16 13:05:00,91.1,78.6,30.21,NNW,331,0.0,0.0,67,0.00,,,0.00,877,Wunderground v.1.15,2013-07-16 17:05:00,
2013-07-16 13:15:00,90.5,78.5,30.21,WNW,290,0.0,0.0,68,0.00,,,0.00,399,Wunderground v.1.15,2013-07-16 17:15:00,
2013-07-16 13:20:00,89.8,77.4,30.21,WNW,294,0.0,0.0,67,0.00,,,0.00,911,Wunderground v.1.15,2013-07-16 17:20:00,
2013-07-16 13:25:00,89.6,77.6,30.21,WNW,294,0.0,0.0,68,0.00,,,0.00,954,Wunderground v.1.15,2013-07-16 17:25:00,
2013-07-16 13:30:00,89.6,77.2,30.21,WNW,294,0.0,0.0,67,0.00,,,0.00,956,Wunderground v.1.15,2013-07-16 17:30:00,
2013-07-16 13:40:00,88.6,77.1,30.21,WNW,294,0.0,0.0,69,0.00,,,0.00,148,Wunderground v.1.15,2013-07-16 17:40:00,
2013-07-16 13:45:00,88.9,77.8,30.21,WNW,294,0.0,0.0,70,0.00,,,0.00,775,Wunderground v.1.15,2013-07-16 17:45:00,
2013-07-16 13:50:00,89.7,77.7,30.21,WNW,294,0.0,0.0,68,0.00,,,0.00,970,Wunderground v.1.15,2013-07-16 17:50:00,
2013-07-16 13:55:00,90.8,77.4,30.20,WNW,294,0.0,0.0,65,0.00,,,0.00,186,Wunderground v.1.15,2013-07-16 17:55:00,
2013-07-16 14:00:00,91.5,77.6,30.20,WNW,294,0.0,0.0,64,0.00,,,0.00,216,Wunderground v.1.15,2013-07-16 18:00:00,
2013-07-16 14:10:00,91.7,77.3,30.20,WNW,294,0.0,0.0,63,0.00,,,0.00,935,Wunderground v.1.15,2013-07-16 18:10:00,
2013-07-16 14:15:00,92.1,77.2,30.20,WNW,294,0.0,0.0,62,0.00,,,0.00,759,Wunderground v.1.15,2013-07-16 18:15:00,
2013-07-16 14:20:00,92.6,76.2,30.19,WNW,294,0.0,0.0,59,0.00,,,0.00,200,Wunderground v.1.15,2013-07-16 18:20:00,
2013-07-16 14:25:00,92.8,78.3,30.19,WNW,294,0.0,0.0,63,0.00,,,0.00,891,Wunderground v.1.15,2013-07-16 18:25:00,
2013-07-16 14:30:00,93.2,77.7,30.19,WNW,294,0.0,0.0,61,0.00,,,0.00,659,Wunderground v.1.15,2013-07-16 18:30:00,
2013-07-16 14:40:00,92.9,78.0,30.20,WNW,294,0.0,0.0,62,0.00,,,0.00,169,Wunderground v.1.15,2013-07-16 18:40:00,
2013-07-16 14:45:00,91.5,79.4,30.19,WNW,294,0.0,0.0,68,0.00,,,0.00,898,Wunderground v.1.15,2013-07-16 18:45:00,
2013-07-16 14:50:00,91.0,80.3,30.19,WNW,294,0.0,0.0,71,0.00,,,0.00,956,Wunderground v.1.15,2013-07-16 18:50:00,
2013-07-16 14:55:00,90.6,78.1,30.19,WSW,258,0.0,0.0,67,0.00,,,0.00,329,Wunderground v.1.15,2013-07-16 18:55:00,
2013-07-16 15:00:00,91.0,79.4,30.19,WSW,258,0.0,0.0,69,0.00,,,0.00,921,Wunderground v.1.15,2013-07-16 19:00:00,
2013-07-16 15:10:00,91.1,79.1,30.18,WSW,258,0.0,0.0,68,0.00,,,0.00,868,Wunderground v.1.15,2013-07-16 19:10:00,
2013-07-16 15:15:00,91.5,80.3,30.18,WSW,258,0.0,0.0,70,0.00,,,0.00,831,Wunderground v.1.15,2013-07-16 19:15:00,
2013-07-16 15:20:00,92.0,79.9,30.18,WSW,258,0.0,0.0,68,0.00,,,0.00,837,Wunderground v.1.15,2013-07-16 19:20:00,
2013-07-16 15:25:00,92.5,80.4,30.18,WSW,258,0.0,0.0,68,0.00,,,0.00,872,Wunderground v.1.15,2013-07-16 19:25:00,
2013-07-16 15:30:00,92.8,78.8,30.18,WSW,258,0.0,0.0,64,0.00,,,0.00,877,Wunderground v.1.15,2013-07-16 19:30:00,
2013-07-16 15:40:00,93.0,78.5,30.17,WSW,258,0.0,0.0,63,0.00,,,0.00,891,Wunderground v.1.15,2013-07-16 19:40:00,
2013-07-16 15:45:00,93.3,78.8,30.17,WSW,244,0.0,0.0,63,0.00,,,0.00,199,Wunderground v.1.15,2013-07-16 19:45:00,
2013-07-16 15:50:00,93.2,79.7,30.17,WSW,244,0.0,0.0,65,0.00,,,0.00,209,Wunderground v.1.15,2013-07-16 19:50:00,
2013-07-16 15:55:00,92.6,80.0,30.17,WSW,244,0.0,0.0,67,0.00,,,0.00,766,Wunderground v.1.15,2013-07-16 19:55:00,
2013-07-16 16:00:00,92.9,79.9,30.17,WSW,244,0.0,0.0,66,0.00,,,0.00,742,Wunderground v.1.15,2013-07-16 20:00:00,
2013-07-16 16:10:00,93.3,78.8,30.17,South,174,0.0,0.0,63,0.00,,,0.00,728,Wunderground v.1.15,2013-07-16 20:10:00,
2013-07-16 16:15:00,93.5,78.5,30.16,South,186,0.0,0.0,62,0.00,,,0.00,684,Wunderground v.1.15,2013-07-16 20:15:00,
2013-07-16 16:20:00,92.8,78.8,30.16,South,171,0.0,0.0,64,0.00,,,0.00,671,Wunderground v.1.15,2013-07-16 20:20:00,
2013-07-16 16:25:00,91.5,79.0,30.16,South,179,0.0,0.0,67,0.00,,,0.00,659,Wunderground v.1.15,2013-07-16 20:25:00,
2013-07-16 16:30:00,91.0,79.4,30.16,South,179,0.0,0.0,69,0.00,,,0.00,656,Wunderground v.1.15,2013-07-16 20:30:00,
2013-07-16 16:40:00,92.5,79.0,30.16,South,179,0.0,0.0,65,0.00,,,0.00,636,Wunderground v.1.15,2013-07-16 20:40:00,
2013-07-16 16:45:00,93.5,79.0,30.16,South,179,0.0,0.0,63,0.00,,,0.00,622,Wunderground v.1.15,2013-07-16 20:45:00,
2013-07-16 16:50:00,94.2,79.7,30.16,South,179,0.0,0.0,63,0.00,,,0.00,183,Wunderground v.1.15,2013-07-16 20:50:00,
2013-07-16 16:55:00,94.4,78.9,30.16,South,179,0.0,0.0,61,0.00,,,0.00,243,Wunderground v.1.15,2013-07-16 20:55:00,
2013-07-16 17:05:00,94.4,80.8,30.16,South,179,0.0,0.0,65,0.00,,,0.00,610,Wunderground v.1.15,2013-07-16 21:05:00,
2013-07-16 17:10:00,94.3,79.3,30.15,South,179,0.0,0.0,62,0.00,,,0.00,584,Wunderground v.1.15,2013-07-16 21:10:00,
2013-07-16 17:15:00,94.6,79.6,30.16,South,179,0.0,0.0,62,0.00,,,0.00,499,Wunderground v.1.15,2013-07-16 21:15:00,
2013-07-16 17:20:00,94.0,80.0,30.16,NW,312,0.0,0.0,64,0.00,,,0.00,281,Wunderground v.1.15,2013-07-16 21:20:00,
2013-07-16 17:30:00,89.8,79.1,30.16,NNW,335,0.0,0.0,71,0.00,,,0.00,424,Wunderground v.1.15,2013-07-16 21:30:00,
2013-07-16 17:35:00,88.3,78.1,30.15,NW,319,1.0,1.0,72,0.00,,,0.00,359,Wunderground v.1.15,2013-07-16 21:35:00,
2013-07-16 17:40:00,87.5,78.2,30.15,NW,321,1.0,1.0,74,0.00,,,0.00,471,Wunderground v.1.15,2013-07-16 21:40:00,
2013-07-16 17:45:00,87.0,78.1,30.15,NW,321,0.0,1.0,75,0.00,,,0.00,457,Wunderground v.1.15,2013-07-16 21:45:00,
2013-07-16 17:55:00,86.9,76.4,30.16,NNW,340,0.0,0.0,71,0.00,,,0.00,427,Wunderground v.1.15,2013-07-16 21:55:00,
2013-07-16 18:00:00,87.1,77.0,30.16,NNW,340,0.0,0.0,72,0.00,,,0.00,408,Wunderground v.1.15,2013-07-16 22:00:00,
2013-07-16 18:05:00,87.2,76.6,30.16,NNW,346,0.0,0.0,71,0.00,,,0.00,396,Wunderground v.1.15,2013-07-16 22:05:00,
2013-07-16 18:10:00,87.5,76.5,30.16,NNW,337,0.0,0.0,70,0.00,,,0.00,381,Wunderground v.1.15,2013-07-16 22:10:00,
2013-07-16 18:15:00,87.7,76.3,30.16,NNW,343,0.0,0.0,69,0.00,,,0.00,374,Wunderground v.1.15,2013-07-16 22:15:00,
2013-07-16 18:25:00,87.7,77.1,30.16,NNW,343,0.0,0.0,71,0.00,,,0.00,350,Wunderground v.1.15,2013-07-16 22:25:00,
2013-07-16 18:30:00,87.4,78.1,30.16,NNW,343,0.0,0.0,74,0.00,,,0.00,357,Wunderground v.1.15,2013-07-16 22:30:00,
2013-07-16 18:35:00,87.2,77.5,30.16,NNW,343,0.0,0.0,73,0.00,,,0.00,278,Wunderground v.1.15,2013-07-16 22:35:00,
2013-07-16 18:45:00,87.2,77.5,30.16,NNW,343,0.0,0.0,73,0.00,,,0.00,318,Wunderground v.1.15,2013-07-16 22:45:00,
2013-07-16 18:50:00,87.8,79.3,30.17,NNW,344,0.0,0.0,76,0.00,,,0.00,264,Wunderground v.1.15,2013-07-16 22:50:00,
2013-07-16 18:55:00,87.9,77.7,30.16,NNW,344,0.0,0.0,72,0.00,,,0.00,200,Wunderground v.1.15,2013-07-16 22:55:00,
2013-07-16 19:00:00,88.0,78.7,30.16,NNW,344,0.0,0.0,74,0.00,,,0.00,163,Wunderground v.1.15,2013-07-16 23:00:00,
2013-07-16 19:05:00,88.0,78.7,30.16,NNW,344,0.0,0.0,74,0.00,,,0.00,84,Wunderground v.1.15,2013-07-16 23:05:00,
2013-07-16 19:15:00,87.2,78.7,30.17,NNW,344,0.0,0.0,76,0.00,,,0.00,49,Wunderground v.1.15,2013-07-16 23:15:00,
2013-07-16 19:20:00,86.4,78.7,30.17,NNW,344,0.0,0.0,78,0.00,,,0.00,37,Wunderground v.1.15,2013-07-16 23:20:00,
2013-07-16 19:25:00,85.8,78.9,30.17,NNW,344,0.0,0.0,80,0.00,,,0.00,26,Wunderground v.1.15,2013-07-16 23:25:00,
2013-07-16 19:30:00,85.4,79.3,30.17,NNW,344,0.0,0.0,82,0.00,,,0.00,19,Wunderground v.1.15,2013-07-16 23:30:00,
2013-07-16 19:35:00,85.0,78.9,30.17,NNW,344,0.0,0.0,82,0.00,,,0.00,14,Wunderground v.1.15,2013-07-16 23:35:00,
2013-07-16 19:45:00,84.5,78.8,30.17,NNW,344,0.0,0.0,83,0.00,,,0.00,9,Wunderground v.1.15,2013-07-16 23:45:00,
2013-07-16 19:50:00,84.0,78.3,30.17,NNW,344,0.0,0.0,83,0.00,,,0.00,7,Wunderground v.1.15,2013-07-16 23:50:00,
2013-07-16 19:55:00,83.6,78.2,30.17,NNW,344,0.0,0.0,84,0.00,,,0.00,5,Wunderground v.1.15,2013-07-16 23:55:00,
2013-07-16 20:05:00,83.3,78.7,30.17,NNW,344,0.0,0.0,86,0.00,,,0.00,0,Wunderground v.1.15,2013-07-17 00:05:00,
2013-07-16 20:10:00,83.1,78.5,30.17,NNW,344,0.0,0.0,86,0.00,,,0.00,0,Wunderground v.1.15,2013-07-17 00:10:00,
2013-07-16 20:15:00,83.0,78.7,30.17,NNW,344,0.0,0.0,87,0.00,,,0.00,0,Wunderground v.1.15,2013-07-17 00:15:00,
2013-07-16 20:25:00,82.6,78.7,30.16,NNW,344,0.0,0.0,88,0.00,,,0.00,0,Wunderground v.1.15,2013-07-17 00:25:00,
2013-07-16 20:30:00,82.5,78.2,30.17,NNW,344,0.0,0.0,87,0.00,,,0.00,0,Wunderground v.1.15,2013-07-17 00:30:00,
2013-07-16 20:35:00,82.5,78.2,30.17,NNW,344,0.0,0.0,87,0.00,,,0.00,0,Wunderground v.1.15,2013-07-17 00:35:00,
2013-07-16 20:40:00,82.6,78.7,30.16,NNW,344,0.0,0.0,88,0.00,,,0.00,0,Wunderground v.1.15,2013-07-17 00:40:00,
2013-07-16 20:45:00,82.5,78.6,30.17,NNW,344,0.0,0.0,88,0.00,,,0.00,0,Wunderground v.1.15,2013-07-17 00:45:00,
2013-07-16 20:55:00,82.2,78.3,30.17,NNW,344,0.0,0.0,88,0.00,,,0.00,0,Wunderground v.1.15,2013-07-17 00:55:00,
2013-07-16 21:00:00,82.0,78.1,30.17,NNW,344,0.0,0.0,88,0.00,,,0.00,0,Wunderground v.1.15,2013-07-17 01:00:00,
2013-07-16 21:10:00,81.6,78.0,30.18,NNW,344,0.0,0.0,89,0.00,,,0.00,0,Wunderground v.1.15,2013-07-17 01:10:00,
2013-07-16 21:15:00,81.3,78.1,30.17,NNW,344,0.0,0.0,90,0.00,,,0.00,0,Wunderground v.1.15,2013-07-17 01:15:00,
2013-07-16 21:25:00,80.9,78.0,30.18,NNW,344,0.0,0.0,91,0.00,,,0.00,0,Wunderground v.1.15,2013-07-17 01:25:00,
2013-07-16 21:30:00,80.7,77.8,30.19,NNW,344,0.0,0.0,91,0.00,,,0.00,0,Wunderground v.1.15,2013-07-17 01:30:00,
2013-07-16 21:35:00,80.6,78.1,30.19,NNW,344,0.0,0.0,92,0.00,,,0.00,0,Wunderground v.1.15,2013-07-17 01:35:00,
2013-07-16 21:45:00,80.5,78.0,30.19,NNW,344,0.0,0.0,92,0.00,,,0.00,0,Wunderground v.1.15,2013-07-17 01:45:00,
2013-07-16 21:50:00,80.5,78.0,30.19,NNW,344,0.0,0.0,92,0.00,,,0.00,0,Wunderground v.1.15,2013-07-17 01:50:00,
2013-07-16 21:55:00,80.4,77.9,30.19,NNW,344,0.0,0.0,92,0.00,,,0.00,0,Wunderground v.1.15,2013-07-17 01:55:00,
2013-07-16 22:00:00,80.3,77.8,30.20,NNW,344,0.0,0.0,92,0.00,,,0.00,0,Wunderground v.1.15,2013-07-17 02:00:00,
2013-07-16 22:10:00,80.0,77.5,30.19,NNW,344,0.0,0.0,92,0.00,,,0.00,0,Wunderground v.1.15,2013-07-17 02:10:00,
2013-07-16 22:15:00,79.8,77.3,30.19,NNW,344,0.0,0.0,92,0.00,,,0.00,0,Wunderground v.1.15,2013-07-17 02:15:00,
2013-07-16 22:20:00,79.6,77.4,30.19,NNW,344,0.0,0.0,93,0.00,,,0.00,0,Wunderground v.1.15,2013-07-17 02:20:00,
2013-07-16 22:25:00,79.5,77.3,30.19,NNW,344,0.0,0.0,93,0.00,,,0.00,0,Wunderground v.1.15,2013-07-17 02:25:00,
2013-07-16 22:30:00,79.5,77.6,30.19,NNW,344,0.0,0.0,94,0.00,,,0.00,0,Wunderground v.1.15,2013-07-17 02:30:00,
2013-07-16 22:35:00,79.5,77.6,30.20,NNW,344,0.0,0.0,94,0.00,,,0.00,0,Wunderground v.1.15,2013-07-17 02:35:00,
2013-07-16 22:40:00,79.5,77.6,30.20,NNW,344,0.0,0.0,94,0.00,,,0.00,0,Wunderground v.1.15,2013-07-17 02:40:00,
2013-07-16 22:45:00,79.4,77.5,30.19,NNW,344,0.0,0.0,94,0.00,,,0.00,0,Wunderground v.1.15,2013-07-17 02:45:00,
2013-07-16 22:50:00,79.3,77.4,30.20,NNW,344,0.0,0.0,94,0.00,,,0.00,0,Wunderground v.1.15,2013-07-17 02:50:00,
2013-07-16 22:55:00,79.3,77.7,30.20,NNW,344,0.0,0.0,95,0.00,,,0.00,0,Wunderground v.1.15,2013-07-17 02:55:00,
2013-07-16 23:05:00,79.1,77.2,30.19,NNW,344,0.0,0.0,94,0.00,,,0.00,0,Wunderground v.1.15,2013-07-17 03:05:00,
2013-07-16 23:10:00,78.7,76.8,30.19,NNW,344,0.0,0.0,94,0.00,,,0.00,0,Wunderground v.1.15,2013-07-17 03:10:00,
2013-07-16 23:15:00,78.9,77.3,30.19,NNW,344,0.0,0.0,95,0.00,,,0.00,0,Wunderground v.1.15,2013-07-17 03:15:00,
2013-07-16 23:20:00,79.0,77.4,30.19,NNW,344,0.0,0.0,95,0.00,,,0.00,0,Wunderground v.1.15,2013-07-17 03:20:00,
2013-07-16 23:30:00,78.9,77.3,30.18,NNW,344,0.0,0.0,95,0.00,,,0.00,0,Wunderground v.1.15,2013-07-17 03:30:00,
2013-07-16 23:35:00,78.8,77.2,30.18,NNW,344,0.0,0.0,95,0.00,,,0.00,0,Wunderground v.1.15,2013-07-17 03:35:00,
2013-07-16 23:40:00,78.7,77.1,30.18,NNW,344,0.0,0.0,95,0.00,,,0.00,0,Wunderground v.1.15,2013-07-17 03:40:00,
2013-07-16 23:45:00,78.6,77.0,30.18,NNW,344,0.0,0.0,95,0.00,,,0.00,0,Wunderground v.1.15,2013-07-17 03:45:00,
2013-07-16 23:50:00,78.6,77.0,30.18,South,180,0.0,0.0,95,0.00,,,0.00,0,Wunderground v.1.15,2013-07-17 03:50:00,